Weather Roundup
Issued by NWS

Home | Current Version | Previous Version | Graphics & Text | Print | Product List | Glossary Off
Versions: 1 2 3 4 5 6 7 8 9 10 11 12 13 14 15 16 17 18 19 20 21 22 23 24 25 26 27 28 29 30 31 32 33 34 35 36 37 38 39 40 41 42 43 44 45 46 47 48 49 50

000
NZUS93 KARX 231610
HRRWXR

CURRENT HOURLY OBSERVATIONS ACROSS
MUCH OF THE UPPER MISSISSIPPI VALLEY
NATIONAL WEATHER SERVICE LA CROSSE WI
1100 AM CDT WED APR 23 2014


...SOUTHEAST MINNESOTA...


CITY           SKY/WX    TMP DP  RH WIND       PRES   REMARKS
ROCHESTER      CLOUDY    44  29  55 SE17      30.11R
ROCHESTER/MAYO CLOUDY    44  25  46 SE13G26   30.11R
WINONA         CLOUDY    48  30  49 SE9       30.14R
AUSTIN         DRIZZLE   43  30  61 SE13G18   30.08F
ALBERT LEA     CLOUDY    45  30  57 SE15G26   30.06S
DODGE CENTER   DRIZZLE   45  32  61 SE15      30.09R
PRESTON        CLOUDY    44  30  58 S15       30.12R
OWATONNA       LGT RAIN  43  34  70 SE13      30.09R
FARIBAULT      LGT RAIN  45  30  57 SE15G21   30.10R
$$

...ELSEWHERE IN MINNESOTA...


CITY           SKY/WX    TMP DP  RH WIND       PRES   REMARKS
MINNEAPOLIS    CLOUDY    45  28  51 SE14      30.11R
INTNL FALLS    PTSUNNY   51  22  31 S8G20     30.06S
DULUTH         PTSUNNY   44  25  47 SE8       30.11F
RED WING       CLOUDY    48  27  43 SE12G17   30.11R
REDWOOD FALLS  CLOUDY    42  37  82 SE20      29.95F
MANKATO        CLOUDY    41  36  81 SE20      30.04F
WORTHINGTON    CLOUDY    46  28  49 SE22G28   29.90R
FAIRMONT       CLOUDY    45  34  65 SE20G28   29.99R
$$

...SOUTHWEST WISCONSIN...


CITY           SKY/WX    TMP DP  RH WIND       PRES   REMARKS
LA CROSSE      CLOUDY    50  28  42 S12       30.13F
PRAIRIE DU CHI CLOUDY    47  27  46 E9        30.15F
BOSCOBEL       PTSUNNY   49  27  42 VRB6      30.16F
LONE ROCK      MOSUNNY   48  26  42 E7        30.16F
PLATTEVILLE    MOSUNNY   46  29  51 E6        30.17S
FORT MC COY    PTSUNNY   50  23  34 SE9       30.15S
CAMP DOUGLAS   PTSUNNY   48  27  43 E7        30.15F
VIROQUA        FAIR      47  28  47 SE9       30.13F
WIS DELLS      MOSUNNY   47  25  42 E6        30.16S
$$

...ELSEWHERE IN WISCONSIN...


CITY           SKY/WX    TMP DP  RH WIND       PRES   REMARKS
MILWAUKEE      PTSUNNY   43  28  55 NE10      30.19S
MADISON        PTSUNNY   46  24  42 SE6       30.17S
GREEN BAY      PTSUNNY   43  24  47 E10G20    30.19S
EAU CLAIRE     CLOUDY    47  25  42 SE10      30.14R
BLACK RVR FLS  FAIR      49  22  33 SE7       30.14F
MEDFORD        PTSUNNY   43  25  48 E10       30.14S
WAUSAU         PTSUNNY   45  24  43 E7        30.14S
WIS RAPIDS     MOSUNNY   47  21  35 E8        30.17F
MARSHFIELD     PTSUNNY   46  27  47 SE9       30.14F
RICE LAKE      CLOUDY    46  27  46 SE12      30.15R
$$

...NORTHEAST IOWA...


CITY           SKY/WX    TMP DP  RH WIND       PRES   REMARKS
WATERLOO       CLOUDY    48  30  49 SE17G24   30.09F
DUBUQUE        CLOUDY    44  29  55 SE9       30.16S
DECORAH        CLOUDY    45  30  57 SE12      30.13R
MASON CITY     CLOUDY    46  32  58 SE24G33   30.07F
CHARLES CITY   CLOUDY    43  30  61 SE16G25   30.10R
OELWEIN        PTSUNNY  N/A N/A N/A SE16G24   30.12F
$$

...ELSEWHERE IN IOWA...


CITY           SKY/WX    TMP DP  RH WIND       PRES   REMARKS
DES MOINES     CLOUDY    54  33  45 SE17      30.05S
IOWA CITY      CLOUDY    48  31  51 SE15      30.15F
FORT DODGE     CLOUDY    52  30  43 SE13G22   30.00F
MARSHALLTOWN   CLOUDY    49  31  49 SE22G29   30.06F
CEDAR RAPIDS   CLOUDY    47  32  56 SE15      30.12F
$$

...NORTHERN ILLINOIS...


CITY           SKY/WX    TMP DP  RH WIND       PRES   REMARKS
CHICAGO-OHARE  MOSUNNY   44  24  45 NE9       30.18R
DUPAGE         SUNNY     47  27  45 NE9       30.17S
CHICAGO-MIDWAY MOSUNNY   44  28  53 NE8       30.18S
MOLINE         CLOUDY    48  29  47 E13       30.16F
ROCKFORD       MOSUNNY   49  26  41 E7        30.20S
STERLING       MOSUNNY   48  30  49 SE8       30.18S
PEORIA         PTSUNNY   50  31  48 E6        30.16F
$$

NOTE: "FAIR" INDICATES FEW OR NO CLOUDS BELOW 12,000 FEET WITH NO
SIGNIFICANT WEATHER AND/OR OBSTRUCTIONS TO VISIBILITY. WIND
SPEEDS ARE IN MILES-PER-HOUR.



USA.gov is the U.S. government's official web portal to all federal, state and local government web resources and services.